STARLINK-11555, 62915

Orbit data source: Space-Track

STARLINK-11555, 62915 is a payload satellite owned by SpaceX/Seattle (US) in LEO that was launched on Sat, 08 Feb 2025 UTC via an FALCON 9 launch vehicle from the Air Force Eastern Test Range (AFETR). Payload-class satellites include a variety of spacecraft equipped with specific instruments for various scientific and technological missions. These include communications satellites like Starlink; space stations such as the ISS; scientific satellites like the Hubble; Earth observation satellites from companies like Planet Labs, Umbra, and HawkEye 360; GPS; miniature CubeSats for education and research; and military/defense satellites.

Loading next visibility...
Identifier
62915, 2025-027J
Orbit
LEO
Last TLE update
10 hours ago
Origin
Manufacturer
SpaceX/Seattle
Mission
Operational Commercial Communications
Bus & Motor
STARLINK V2M, Unknown motor
Mass
730 kg wet, ~700 kg dry
Launch date (UTC)
2025-02-08 (5 months ago)
Launch vehicle
FALCON 9
Launch site
Air Force Eastern Test Range (AFETR)
Object type
Payload
Rocket body
Debris
Shape & HBR
Box + 2 Pan, 29 m
Radar Cross Section
36.964 m², Large (>1 m²)

Expand to show TLE details & history

TLE from 10 hours ago
0 STARLINK-11555
1 62915U 25027J   25181.73871994  .00228380  00000-0  17342-2 0  9996
2 62915  43.0015  66.6217 0002727 286.9091  73.1477 15.70847588 23567
Epoch: 2025-06-30T17:43Z
TLE epoch observation values (Epoch: 2025-06-30T17:43:45.402Z)
Latitude
-0.00007°
Longitude
-118.36177°
Altitude
355.713 km
Speed
7.698 km/s
True Right ascension
04h 26m 29s
True Declination
0° 00' 00"
Sunlit
Object was in daylight at epoch
Visualization orbit readout
Latitude
40.54373°
Longitude
-6.5761°
Altitude
360.334 km
Speed
7.698 km/s
Apparent Right ascension
07h 38m 02s
Apparent Declination
4° 11' 08"
Sunlit
Object is in daylight
Visualization observer readout
Local Sidereal Time
14:57:51
Azimuth
286.314° WNW
Elevation
-12.37°
Doppler factor
1
Orbital elements
Apogee altitude
360.292 km
Perigee altitude
356.618 km
Semi-major axis
6,736.592 km
Eccentricity
0.00027
Inclination
43.0015°
RAAN
66.6217°
Arg. of periapsis
286.9091°
True anomaly
Unknown
Mean anomaly
73.1477°
Eccentric anomaly
Unknown
Mean motion
3.92539 °/min
Orbital period
91.71 mins
BSTAR
0.0017342
Loading maneuver chart data...
Loading SW <> Apogee altitude chart data...
Loading historical data...
Loading historical data...
Loading historical data...
Loading historical data...
Loading historical data...
Loading historical data...
Loading historical data...

STARLINK-11555 Visibility forecast

Observer location: undefined°, undefined°

Span
Click to sort rows by Start time (UTC) header in descending order
Start Az.
Max El. time (UTC)
Max El. Az.
Max El.
End time (UTC)
End Az.
5 mins2025-07-01 19:53:34.402Z229.481° WSW2025-07-01 19:55:34.402Z190.668° SSW34.136°2025-07-01 19:58:34.402Z80.731° E
4 mins2025-07-01 21:30:34.402Z284.654° WNW2025-07-01 21:32:34.402Z23.214° NE35.074°2025-07-01 21:34:34.402Z66.56° ENE
|